sat.trackr.live / text

‹ back to catalog

BRO-5

NORAD 51061 · 2022-002CF

PAYLOAD ACTIVE UNKNOWN

§ Identity

Operator
Country
FR
Launch date
2022-01-13
Launch site
AFETR
Launch vehicle
Mass (kg)
RCS (m²)

External: N2YO · Heavens-Above · Gunter

§ Orbital elements

Epoch: 2026-05-25T03:42:11.492352Z

Period
93.15 min
Inclination
97.3006°
Eccentricity
0.0005949
Mean motion
15.45928473 rev/d
Perigee alt
424.6 km
Apogee alt
432.7 km
Semi-major
6,806.8 km
B*
5.7267e-4
RAAN
218.6424°
Arg perigee
64.4595°
Mean anomaly
295.7269°
Rev number
24,269

§ Raw data

BRO-51 51061U 22002CF  26145.15429968  .00027856  00000+0  57267-3 0  99982 51061  97.3006 218.6424 0005949  64.4595 295.7269 15.45928473242698

JSON: /api/v1/satellites/51061 · /tle

For live sub-satellite position, see the globe view (requires WebGL).

§ Visibility from observer

Set your observer location to see the next 7 days of passes ≥ 10°. The values pass through the URL so the page stays shareable.

No JS? Fill the form by hand. The geolocation button needs JavaScript.

§ Radio — SatNOGS DB

ModeDescriptionDownlinkUplink
FSK AX.100 Mode 5 Mode U - FSK4k8 AX.100 401.735 MHz
FSK S-Band transmitter 2.261 GHz
FSK AX.100 Mode 5 Telemetry 401.176 MHz
FM Telemetry 401.490 MHz

4 transmitters · refreshed weekly from db.satnogs.org